Theta_e
347 353 353 344 343 344 343 337 339 341 337 339 334 334 333 331 332 334 331 336 337 334 335 339 342 343 343 342 340 340 339 338 337 338 338 339 339 340 341 341 341 341 343
348 351 346 344 346 345 346 342 341 340 340 339 339 337 335 335 335 336 332 331 339 337 334 334 336 340 341 339 339 338 337 336 336 337 337 336 337 338 338 338 339 339 340
357 355 348 350 343 348 344 346 343 340 339 339 338 338 337 337 336 335 337 331 333 338 337 334 334 335 339 338 336 337 336 336 335 335 334 332 334 333 333 333 334 332 337
357 355 351 341 351 348 346 345 342 340 341 338 340 338 334 337 336 337 335 334 331 330 334 336 335 335 335 336 336 334 335 335 334 334 332 331 331 330 331 331 332 332 331
353 351 351 350 353 348 347 342 343 342 340 338 337 339 338 337 338 335 338 335 336 334 332 337 338 337 336 335 334 335 335 334 333 332 331 330 330 330 329 329 330 330 330
352 355 349 353 349 346 345 345 344 343 343 338 335 334 339 339 338 337 337 336 335 336 336 332 332 332 338 335 336 336 336 334 332 332 331 331 330 330 330 330 329 329 329
352 353 348 352 351 347 348 347 343 342 340 342 336 334 336 339 339 338 339 337 336 335 334 336 333 333 333 338 338 338 336 335 334 333 334 334 334 331 330 330 330 330 328
355 352 349 348 348 345 350 345 345 340 342 342 334 333 326 333 335 338 338 337 336 336 336 335 334 335 334 331 332 339 337 336 336 334 335 334 334 332 331 329 329 329 329
353 354 354 350 351 350 347 347 347 344 336 339 337 329 324 322 328 335 337 336 333 337 335 336 336 334 336 333 335 337 339 338 338 337 336 335 333 332 331 329 329 329 330
352 354 352 353 352 350 348 348 345 344 343 335 337 338 337 335 325 324 333 335 335 335 337 338 336 337 336 336 340 339 337 337 339 339 339 336 334 333 332 330 330 329 329
348 352 354 352 354 351 350 346 345 346 343 341 334 334 333 334 333 327 322 327 333 336 337 338 337 335 336 336 335 334 336 336 336 336 337 338 336 334 333 332 330 330 330
348 350 351 351 351 350 346 344 343 342 342 339 337 335 332 329 328 328 325 325 324 328 328 329 337 336 337 336 337 335 331 334 333 333 334 335 337 337 336 333 332 331 331
344 346 348 350 352 347 345 344 343 343 341 338 334 334 334 333 332 329 326 323 319 322 323 326 327 333 333 331 332 332 335 332 330 329 330 332 333 335 335 335 334 333 332
346 346 346 346 348 347 347 345 344 340 340 337 336 332 333 333 331 329 326 321 316 317 320 323 326 328 328 329 333 334 331 331 329 326 327 329 329 331 332 333 333 332 332
345 346 344 344 345 345 344 342 341 338 337 337 334 333 332 332 328 329 327 326 320 313 314 318 319 328 327 324 329 325 325 328 330 327 326 325 326 327 328 330 330 329 329
344 341 341 342 342 339 339 340 338 337 334 332 331 328 328 326 321 321 322 321 320 317 310 315 316 323 326 324 324 323 325 327 325 326 327 325 324 325 325 326 327 328 327
341 340 341 340 338 338 336 334 333 330 327 325 325 324 323 325 323 322 322 319 318 317 311 314 316 318 319 320 320 323 323 323 322 325 326 325 322 322 323 323 324 325 326
341 340 340 338 334 334 335 328 324 323 324 323 323 323 321 322 322 321 320 319 319 320 315 310 314 317 318 319 319 322 322 322 321 323 324 323 321 320 320 320 321 321 321
336 338 337 336 332 330 328 325 323 323 323 324 324 322 321 320 318 320 319 319 318 316 316 313 312 314 314 317 314 318 319 320 323 326 322 322 321 319 319 319 318 317 316
333 333 331 328 327 326 326 324 324 325 323 322 324 322 322 320 318 319 317 317 315 314 313 312 311 311 313 314 316 315 313 318 314 318 320 323 320 319 318 318 319 318 315
332 330 327 327 327 324 316 322 322 321 321 322 323 322 320 322 321 318 315 316 314 310 308 307 307 307 308 309 309 312 312 313 313 315 315 318 319 318 321 318 321 320 316
325 326 325 326 324 317 309 311 316 320 321 320 319 320 320 320 317 317 315 314 312 309 308 308 307 306 307 309 310 310 310 309 307 315 313 311 317 315 317 321 317 316 314
325 325 326 326 322 317 306 308 309 315 316 315 317 317 317 315 316 315 313 312 312 312 311 308 307 308 308 309 309 308 308 307 307 313 314 309 314 312 316 320 314 312 310
328 327 326 325 324 311 306 305 306 315 315 316 317 314 315 315 307 309 311 310 311 312 312 312 311 311 311 312 309 309 307 307 308 310 314 307 311 310 315 313 309 308 304
326 325 326 324 323 311 304 304 308 313 313 315 315 314 313 312 303 302 307 307 307 308 311 310 309 306 305 304 305 306 304 304 304 306 311 309 309 310 312 314 312 309 306
324 322 321 321 316 311 303 303 304 310 310 308 312 315 306 305 300 300 303 304 304 305 308 307 306 307 307 310 309 308 309 305 306 304 309 308 307 308 306 310 308 308 307
Wind_Speed
2 3 1 6 6 5 1 1 5 2 3 5 4 5 5 5 3 5 4 11 8 5 3 4 5 7 9 8 7 7 7 7 7 8 8 9 9 8 9 10 10 10 10
1 3 2 3 4 1 4 3 4 2 2 3 1 3 1 3 5 7 6 6 11 9 8 6 6 7 6 5 5 6 6 6 6 7 8 8 8 9 10 10 10 10 10
4 3 3 3 3 3 4 2 2 3 4 5 4 4 5 4 2 5 4 6 7 10 11 11 9 9 11 10 7 7 7 7 7 8 8 6 8 7 7 8 8 7 9
5 4 3 3 4 4 4 4 3 4 2 2 2 3 4 6 6 7 5 7 6 6 10 13 13 11 11 11 11 9 9 9 8 9 9 8 8 8 7 8 9 9 8
7 5 3 4 5 1 1 2 2 3 2 2 5 5 2 1 2 3 6 5 2 7 6 11 11 11 11 11 11 11 12 11 11 10 10 10 9 9 9 9 9 10 9
7 7 4 4 4 2 3 3 3 2 3 3 6 3 3 4 4 4 5 5 5 6 6 11 8 8 14 16 16 16 16 14 13 14 13 13 13 13 11 11 12 12 12
6 6 4 4 5 3 4 4 2 4 3 4 1 5 5 6 5 4 5 4 6 7 7 10 8 7 9 19 16 16 17 16 15 15 14 14 13 13 13 12 11 12 12
5 4 6 4 5 5 5 4 3 2 3 4 3 4 5 1 5 5 4 5 7 5 6 8 9 8 8 9 12 18 19 19 20 18 16 14 14 15 15 14 14 14 13
7 8 7 5 4 3 1 3 2 4 4 3 5 6 5 2 3 5 5 5 5 9 5 5 4 8 7 10 13 17 21 20 21 22 19 18 18 17 16 16 16 15 15
8 9 7 7 5 4 3 5 5 4 3 5 0 6 4 3 2 4 3 2 7 2 6 5 5 3 5 6 9 18 22 22 22 20 19 20 20 19 19 18 18 17 17
21 10 6 6 4 4 4 5 4 4 2 2 4 3 5 1 2 4 3 4 5 3 5 4 5 4 4 4 3 3 5 19 22 22 21 22 23 22 22 20 20 19 19
9 8 7 5 6 5 5 5 6 4 2 4 2 4 3 2 3 3 3 4 6 5 3 4 3 4 4 2 2 1 2 5 13 17 13 22 23 23 22 23 23 22 22
1 5 8 5 4 4 6 5 4 2 2 1 2 3 4 4 4 3 1 3 3 5 4 4 4 3 3 3 5 7 9 12 11 16 17 20 22 21 24 24 24 24 24
7 4 6 7 5 5 4 3 3 2 1 1 2 4 3 3 3 4 3 3 3 4 4 6 3 3 3 1 1 8 5 9 10 9 13 16 21 26 25 26 26 26 24
3 5 3 11 4 4 5 5 3 3 3 3 2 2 2 4 4 3 1 3 4 3 3 6 2 4 2 1 2 2 3 4 10 13 14 14 16 18 20 25 25 24 22
7 3 11 4 6 7 6 4 3 1 2 3 3 4 2 3 4 4 3 2 2 3 3 2 3 5 5 4 4 4 4 7 9 12 14 14 14 16 19 19 20 23 23
6 3 5 6 7 6 5 3 2 1 5 5 2 2 3 3 3 4 4 4 4 3 4 6 3 4 4 5 5 6 6 6 5 11 12 12 15 15 15 15 17 18 22
6 5 6 6 6 6 4 4 3 4 5 5 5 3 4 3 4 4 3 5 5 4 3 7 5 7 5 7 8 6 5 9 6 9 14 14 13 13 13 13 15 16 19
5 5 5 5 4 6 4 4 3 5 5 3 5 5 4 5 4 2 2 2 3 4 4 4 7 5 5 5 8 8 6 7 5 8 11 15 12 12 15 15 15 15 16
6 6 6 7 7 5 3 2 5 6 5 4 4 3 5 5 5 5 3 3 3 4 6 6 7 8 6 7 6 6 4 2 3 3 6 9 12 12 13 16 18 17 16
6 6 6 6 6 5 6 7 6 6 4 5 6 6 6 7 8 4 2 4 4 4 5 6 7 8 8 7 9 7 7 4 4 3 4 2 3 4 5 12 13 18 18
11 9 7 5 5 5 7 10 6 4 5 6 7 6 5 4 6 2 3 2 4 4 6 6 6 7 8 8 9 8 8 7 7 4 3 3 2 2 4 5 10 14 16
3 2 3 4 9 5 8 10 11 5 6 7 9 9 4 3 3 1 6 8 8 9 11 7 10 8 8 7 9 10 8 6 8 7 7 5 4 4 5 5 7 6 5
3 2 3 5 5 7 10 10 10 5 7 8 8 5 5 4 5 5 5 5 6 7 8 6 8 9 8 7 5 8 9 9 9 9 8 7 5 5 5 4 10 6 4
0 4 4 5 6 7 10 11 10 7 8 7 7 5 6 5 6 8 6 6 8 9 10 8 11 13 14 15 11 4 7 7 9 6 6 6 5 5 4 4 5 4 4
5 4 6 8 8 8 7 7 6 5 7 8 8 3 10 6 5 5 4 6 9 9 7 10 12 12 10 10 14 9 7 7 6 6 4 5 4 3 3 2 3 3 3
Wind_Direction
186 243 272 192 236 146 183 269 130 199 13 315 19 38 18 94 112 125 127 136 125 97 55 81 94 126 136 131 126 125 125 121 125 130 129 128 122 118 121 128 128 130 131
183 97 12 313 323 150 47 50 57 91 231 264 49 146 325 12 83 104 138 148 156 160 155 164 157 149 147 143 148 144 148 149 150 150 139 142 137 134 130 127 129 132 133
193 149 216 234 255 114 128 171 106 241 230 224 201 215 187 150 249 134 130 156 166 170 171 174 183 188 181 177 189 191 189 190 186 171 155 152 143 140 148 144 163 151 132
199 187 262 260 237 173 186 159 160 259 285 26 205 220 187 166 188 161 182 153 179 178 187 184 185 194 204 202 198 202 199 200 181 174 171 187 180 173 171 161 152 154 168
202 214 220 201 218 231 301 146 214 182 271 259 264 193 198 321 177 229 149 151 197 164 178 198 195 194 205 209 209 201 193 200 198 196 197 191 186 179 173 172 169 162 170
207 177 226 202 164 221 256 186 103 30 307 312 299 350 220 189 182 217 155 162 200 229 168 172 189 201 206 211 208 206 208 207 211 201 197 199 197 197 187 192 187 182 178
199 202 196 221 171 220 225 135 154 209 265 234 256 292 253 197 200 202 162 202 229 209 207 176 184 202 201 207 212 214 212 207 211 212 206 205 214 190 196 198 203 196 196
214 209 192 221 201 206 175 155 183 265 257 275 167 346 306 234 213 198 186 201 231 223 205 203 200 205 165 187 204 216 216 212 208 211 211 212 213 209 204 200 202 204 195
211 230 202 202 132 20 172 170 225 227 254 339 107 149 259 286 39 212 214 196 72 250 216 237 205 205 200 179 197 206 214 219 215 210 208 207 213 213 213 209 204 205 195
306 219 207 193 174 173 207 167 193 217 225 273 194 228 324 13 9 325 349 278 229 43 337 285 274 262 239 208 201 195 207 211 219 219 210 208 216 220 218 212 209 204 203
225 235 184 198 194 184 211 191 207 196 223 272 306 342 295 319 279 246 297 307 349 264 240 221 229 265 251 232 206 233 184 224 222 217 212 206 215 214 221 219 212 209 206
209 225 236 203 199 212 208 238 245 212 240 294 9 330 285 277 283 251 265 293 305 290 337 312 255 240 238 166 124 84 132 223 225 244 216 234 219 210 215 219 217 211 210
225 259 261 240 185 211 233 240 253 201 253 216 191 231 267 254 256 262 195 267 298 310 295 286 279 66 115 152 161 186 199 179 213 221 222 228 233 229 212 213 216 215 211
303 264 256 245 218 208 198 186 99 65 78 264 234 262 298 304 280 229 183 206 284 288 296 279 276 246 216 246 79 184 226 193 203 218 228 239 238 235 220 217 214 214 211
259 290 251 235 173 132 103 93 114 145 213 242 282 281 303 307 308 354 281 204 209 253 281 294 330 273 62 94 176 244 251 254 208 202 206 219 235 241 232 226 220 218 210
251 263 213 137 87 91 115 145 155 98 107 256 45 39 358 357 343 320 324 322 287 265 284 291 324 7 21 350 308 280 250 239 243 199 200 209 226 228 231 226 229 212 205
251 225 84 114 114 98 94 126 191 264 65 63 44 334 5 328 322 344 335 326 330 1 335 318 322 305 309 297 292 283 266 257 253 234 203 206 213 220 225 225 215 212 208
151 122 106 101 116 158 151 70 37 76 56 34 0 336 300 312 342 311 320 347 345 348 351 316 310 316 303 300 285 271 278 263 232 233 207 216 204 215 222 221 217 211 217
94 116 160 146 119 83 111 110 80 66 42 355 11 21 343 338 314 307 303 310 321 326 329 309 296 272 278 271 287 273 249 259 248 252 221 213 202 209 213 222 222 218 213
127 88 59 60 49 49 18 118 71 55 39 7 358 324 298 284 287 276 271 290 325 356 318 305 311 313 292 283 273 275 293 283 306 284 276 195 195 213 209 217 222 219 220
76 70 64 54 68 32 35 36 33 25 17 340 327 302 308 329 274 276 354 26 11 339 318 308 304 309 310 331 320 317 309 323 313 278 290 243 209 213 208 234 231 227 226
32 28 27 29 29 72 61 50 32 15 6 327 305 328 339 27 76 21 354 322 276 274 279 287 300 298 308 314 314 313 312 316 306 282 222 280 280 251 230 217 212 221 211
319 10 354 8 72 86 57 42 22 9 344 313 308 304 291 324 301 240 219 257 267 285 247 248 268 274 284 288 303 298 301 304 288 294 302 277 260 256 243 223 191 224 197
291 340 1 26 33 77 57 42 1 343 322 305 307 329 311 298 43 31 342 320 312 312 303 266 249 258 271 283 278 279 284 286 270 263 249 262 268 273 272 88 88 87 48
184 21 54 35 58 80 55 32 7 335 328 335 341 350 13 29 60 27 328 319 316 299 293 288 262 277 278 274 255 277 269 268 286 279 249 227 245 244 258 137 134 52 47
74 7 10 28 60 99 64 55 19 333 351 350 325 35 102 104 186 243 296 282 283 283 301 319 308 295 274 257 263 223 253 264 288 298 285 353 335 270 249 69 74 24 21